Vitoria, Spain

5:13 AM CET on November 22, 2017 (GMT +0100)
Foronda

Weather History for LEVT - September, 2013

Change the Weather History Date:

Sunday, September 1, 2013

  Actual Average Record
Temperature  
Mean Temperature 64 °F -  
Max Temperature 73 °F 74 °F 91 °F (1998)
Min Temperature 55 °F 48 °F 44 °F (2012)
Degree Days  
Heating Degree Days 1    
Growing Degree Days 14 (Base 50)    
Moisture  
Dew Point 55 °F    
Average Humidity 75    
Maximum Humidity 100    
Minimum Humidity 53    
Precipitation  
Precipitation 0.00 in - - ()
Sea Level Pressure  
Sea Level Pressure 30.32 in    
Wind  
Wind Speed 4 mph ()    
Max Wind Speed 16 mph    
Max Gust Speed 21 mph    
Visibility 6.1 miles    
Events      
Averages and records for this station are not official NWS values.
T = Trace of Precipitation, MM = Missing Value Source: Averaged Metar Reports

Daily Weather History Graph

Daily Weather History Graph

Search for Another Location

Airport or City:

Trip Planner

Search our weather history database for the weather conditions in past years. The results will help you decide how hot, cold, wet, or windy it might be!

Date:

Astronomy

Sep. 01, 2013 Rise Set
Actual Time 7:35 AM CEST 8:45 PM CEST
Civil Twilight 7:06 AM CEST 9:14 PM CEST
Nautical Twilight 6:31 AM CEST 9:49 PM CEST
Astronomical Twilight 5:54 AM CEST 10:25 PM CEST
Moon 3:40 AM CEST (9/1) 6:16 PM CEST (9/1)
Length of Visible Light 14h 08m
Length of Day
13h 09m
Waning Crescent, 15% of the Moon is Illuminated
Sep 1
Waning Crescent
Sep 5
New
Sep 12
First Quarter
Sep 19
Full
Sep 27
Last Quarter

Hourly Weather History & Observations

Time (CEST) Temp. Dew Point Humidity Pressure Visibility Wind Dir Wind Speed Gust Speed Precip Events Conditions
12:00 AM 60.8 °F 53.6 °F 77% 30.33 in 6.2 mi North 3.5 mph - N/A   Mostly Cloudy
12:30 AM 60.8 °F 53.6 °F 77% 30.33 in 6.2 mi North 3.5 mph - N/A   Mostly Cloudy
1:00 AM 59.0 °F 53.6 °F 82% 30.33 in 6.2 mi NW 2.3 mph - N/A   Mostly Cloudy
1:30 AM 57.2 °F 53.6 °F 88% 30.33 in 6.2 mi Calm Calm - N/A   Mostly Cloudy
2:00 AM 59.0 °F 53.6 °F 82% 30.33 in 6.2 mi Calm Calm - N/A   Mostly Cloudy
2:30 AM 59.0 °F 53.6 °F 82% 30.33 in 6.2 mi NNW 1.2 mph - N/A   Mostly Cloudy
3:00 AM 59.0 °F 53.6 °F 82% 30.33 in 6.2 mi NW 2.3 mph - N/A   Mostly Cloudy
3:30 AM 59.0 °F 55.4 °F 88% 30.33 in 6.2 mi Calm Calm - N/A   Mostly Cloudy
4:00 AM 59.0 °F 55.4 °F 88% 30.33 in 6.2 mi Calm Calm - N/A   Mostly Cloudy
4:30 AM 59.0 °F 55.4 °F 88% 30.33 in 6.2 mi Calm Calm - N/A   Mostly Cloudy
5:00 AM 59.0 °F 55.4 °F 88% 30.33 in 6.2 mi Calm Calm - N/A   Scattered Clouds
5:30 AM 55.4 °F 55.4 °F 100% 30.30 in 6.2 mi Calm Calm - N/A   Mostly Cloudy
6:00 AM 57.2 °F 55.4 °F 94% 30.30 in 6.2 mi Calm Calm - N/A   Mostly Cloudy
6:30 AM 59.0 °F 55.4 °F 88% 30.30 in 6.2 mi West 1.2 mph - N/A   Mostly Cloudy
7:00 AM 59.0 °F 55.4 °F 88% 30.30 in 6.2 mi Calm Calm - N/A   Mostly Cloudy
7:30 AM 57.2 °F 55.4 °F 94% 30.30 in 5.0 mi Calm Calm - N/A   Scattered Clouds
8:00 AM 57.2 °F 55.4 °F 94% 30.33 in 5.0 mi Variable 1.2 mph - N/A   Mostly Cloudy
8:30 AM 57.2 °F 55.4 °F 94% 30.33 in 5.0 mi Variable 1.2 mph - N/A   Mostly Cloudy
9:00 AM 59.0 °F 57.2 °F 94% 30.33 in 6.2 mi Calm Calm - N/A   Mostly Cloudy
9:30 AM 60.8 °F 57.2 °F 88% 30.33 in 6.2 mi Calm Calm - N/A   Mostly Cloudy
10:00 AM 62.6 °F 57.2 °F 82% 30.33 in 6.2 mi NNE 3.5 mph - N/A   Mostly Cloudy
10:30 AM 64.4 °F 57.2 °F 77% 30.33 in 6.2 mi NNE 6.9 mph - N/A   Mostly Cloudy
11:00 AM 64.4 °F 57.2 °F 77% 30.33 in 6.2 mi NNE 9.2 mph - N/A   Mostly Cloudy
11:30 AM 64.4 °F 57.2 °F 77% 30.33 in 6.2 mi NNE 8.1 mph - N/A   Mostly Cloudy
12:00 PM 66.2 °F 55.4 °F 68% 30.33 in 6.2 mi NNE 8.1 mph - N/A   Scattered Clouds
12:30 PM 66.2 °F 55.4 °F 68% 30.33 in 6.2 mi NNE 8.1 mph - N/A   Scattered Clouds
1:00 PM 68.0 °F 55.4 °F 64% 30.33 in 6.2 mi NNE 10.4 mph - N/A   Mostly Cloudy
1:30 PM 68.0 °F 55.4 °F 64% 30.33 in 6.2 mi North 10.4 mph - N/A   Mostly Cloudy
2:00 PM 71.6 °F 55.4 °F 57% 30.33 in 6.2 mi NE 11.5 mph - N/A   Mostly Cloudy
2:30 PM 71.6 °F 55.4 °F 57% 30.30 in 6.2 mi NNE 10.4 mph - N/A   Mostly Cloudy
3:00 PM 71.6 °F 55.4 °F 57% 30.30 in 6.2 mi North 11.5 mph - N/A   Mostly Cloudy
3:30 PM 71.6 °F 55.4 °F 57% 30.30 in 6.2 mi North 11.5 mph - N/A   Mostly Cloudy
4:00 PM 73.4 °F 55.4 °F 53% 30.30 in 6.2 mi NNE 12.7 mph - N/A   Scattered Clouds
4:30 PM 73.4 °F 55.4 °F 53% 30.30 in 6.2 mi NNE 9.2 mph 20.7 mph N/A   Scattered Clouds
5:00 PM 73.4 °F 55.4 °F 53% 30.30 in 6.2 mi North 15.0 mph - N/A   Scattered Clouds
5:30 PM 71.6 °F 53.6 °F 53% 30.30 in 6.2 mi NNE 16.1 mph - N/A   Scattered Clouds
6:00 PM 71.6 °F 53.6 °F 53% 30.30 in 6.2 mi North 13.8 mph - N/A   Scattered Clouds
6:30 PM 71.6 °F 55.4 °F 57% 30.30 in 6.2 mi North 16.1 mph - N/A   Scattered Clouds
7:00 PM 69.8 °F 57.2 °F 64% 30.30 in 6.2 mi NNE 15.0 mph - N/A   Scattered Clouds
7:30 PM 68.0 °F 55.4 °F 64% 30.30 in 6.2 mi North 15.0 mph - N/A   Scattered Clouds
8:00 PM 66.2 °F 55.4 °F 68% 30.30 in 6.2 mi North 11.5 mph - N/A   Scattered Clouds
8:30 PM 64.4 °F 55.4 °F 73% 30.30 in 6.2 mi North 11.5 mph - N/A   Partly Cloudy
9:00 PM 64.4 °F 55.4 °F 73% 30.30 in 6.2 mi North 11.5 mph - N/A   Scattered Clouds
9:30 PM 62.6 °F 55.4 °F 77% 30.33 in 6.2 mi North 9.2 mph - N/A   Mostly Cloudy
10:00 PM 62.6 °F 55.4 °F 77% 30.33 in 6.2 mi NNE 9.2 mph - N/A   Mostly Cloudy
10:30 PM 64.4 °F 55.4 °F 73% 30.33 in 6.2 mi NNE 9.2 mph - N/A   Mostly Cloudy
11:00 PM 62.6 °F 55.4 °F 77% 30.36 in 6.2 mi NE 6.9 mph - N/A   Mostly Cloudy
11:30 PM 62.6 °F 57.2 °F 82% 30.36 in 6.2 mi NE 8.1 mph - N/A   Mostly Cloudy